{"data":{"norad_id":62328,"epoch":"2026-09-22T20:54:25.355520Z","epoch_age_seconds":107057,"freshness":"FRESH","line1":"1 62328U 24240F   26265.87112680  .00000028  00000+0  30838-4 0  9992","line2":"2 62328  86.4961 310.1517 0001548  85.5847 274.5463 13.24411471 85574","mean_motion":13.24411471,"eccentricity":0.0001548,"inclination_deg":86.4961,"raan_deg":310.1517,"arg_perigee_deg":85.5847,"mean_anomaly_deg":274.5463,"bstar":3.0838e-5,"rev_number":8557,"period_min":108.72753910178,"perigee_km":1166.7484690139,"apogee_km":1169.0847272079,"semimajor_km":7546.0535981109,"source":"CELESTRAK","updated_at":"2026-09-23T09:00:21.354921Z"}}